| time (UTC) | temp F | wind direction | speed knots | gust knots | rain 1hr in | rain 24hr in | rain mn in | humidity % | barometer mb |
| 20260504081539 | 44 | 186 | 1.7 | 6.1 | 0.00 | 0.00 | 0.00 | 80 | 1008.2 |
| 20260504050016 | 43 | 202 | 4.3 | 8.7 | 0.00 | 0.00 | 0.00 | 70 | 1009.0 |
| 20260504044514 | 42 | 213 | 0.0 | 1.7 | 0.00 | 0.00 | 0.00 | 64 | 1009.1 |
| 20260504043011 | 42 | 179 | 0.9 | 6.1 | 0.00 | 0.00 | 0.00 | 64 | 1009.1 |
| 20260504041607 | 41 | 211 | 0.0 | 2.6 | 0.00 | 0.00 | 0.00 | 60 | 1009.1 |
| 20260504040007 | 40 | 197 | 0.0 | 4.3 | 0.00 | 0.00 | 0.00 | 59 | 1009.1 |
| 20260504034507 | 40 | 229 | 0.0 | 3.5 | 0.00 | 0.00 | 0.00 | 62 | 1009.1 |
| 20260504033003 | 40 | 298 | 0.0 | 0.0 | 0.00 | 0.00 | 0.00 | 66 | 1009.1 |
| 20260504031503 | 41 | 298 | 0.0 | 0.0 | 0.00 | 0.00 | 0.00 | 59 | 1009.1 |
| 20260504030003 | 41 | 298 | 0.0 | 0.0 | 0.00 | 0.00 | 0.00 | 54 | 1009.1 |
| 20260504024507 | 41 | 298 | 0.0 | 2.6 | 0.00 | 0.00 | 0.00 | 53 | 1009.2 |
| 20260504023002 | 41 | 316 | 0.0 | 5.2 | 0.00 | 0.00 | 0.00 | 51 | 1009.3 |
| 20260504021502 | 40 | 316 | 0.0 | 2.6 | 0.00 | 0.00 | 0.00 | 54 | 1009.3 |
| 20260504020100 | 40 | 309 | 0.0 | 6.1 | 0.00 | 0.00 | 0.00 | 54 | 1009.4 |
| 20260504014600 | 40 | 316 | 0.0 | 0.0 | 0.00 | 0.00 | 0.00 | 56 | 1009.2 |
| 20260504013100 | 40 | 349 | 0.0 | 0.0 | 0.00 | 0.00 | 0.00 | 57 | 1009.1 |
| 20260504011558 | 40 | 355 | 0.0 | 0.0 | 0.00 | 0.00 | 0.00 | 56 | 1009.0 |
| 20260504010059 | 41 | 355 | 0.0 | 0.0 | 0.00 | 0.00 | 0.00 | 56 | 1008.7 |
| 20260504004558 | 42 | 355 | 0.0 | 0.0 | 0.00 | 0.00 | 0.00 | 55 | 1008.4 |
| 20260504003057 | 43 | 355 | 0.0 | 0.0 | 0.00 | 0.00 | 0.00 | 52 | 1008.3 |
| 20260504001557 | 44 | 336 | 0.0 | 0.0 | 0.00 | 0.00 | 0.00 | 52 | 1008.1 |
| 20260504000136 | 45 | 332 | 0.0 | 0.0 | 0.00 | 0.00 | 0.00 | 48 | 1008.0 |
| 20260503234557 | 45 | 301 | 0.0 | 0.0 | 0.00 | 0.00 | 0.00 | 47 | 1007.8 |
| 20260503233055 | 46 | 300 | 0.0 | 5.2 | 0.00 | 0.00 | 0.00 | 46 | 1007.7 |
| 20260503231555 | 46 | 360 | 0.0 | 5.2 | 0.00 | 0.00 | 0.00 | 46 | 1007.6 |
| 20260503230057 | 47 | 262 | 5.2 | 9.6 | 0.00 | 0.00 | 0.00 | 44 | 1007.5 |
| 20260503224554 | 47 | 328 | 2.6 | 7.0 | 0.00 | 0.00 | 0.00 | 46 | 1007.6 |
| 20260503223054 | 47 | 316 | 3.5 | 11.3 | 0.00 | 0.00 | 0.00 | 44 | 1007.5 |
| 20260503221554 | 48 | 257 | 5.2 | 14.8 | 0.00 | 0.00 | 0.00 | 44 | 1007.5 |
| 20260503220053 | 48 | 319 | 6.1 | 15.6 | 0.00 | 0.00 | 0.00 | 43 | 1007.4 |
| 20260503214551 | 47 | 304 | 5.2 | 13.9 | 0.00 | 0.00 | 0.00 | 49 | 1007.3 |
| 20260503213049 | 46 | 278 | 1.7 | 7.8 | 0.00 | 0.00 | 0.00 | 49 | 1007.3 |
| 20260503211548 | 46 | 331 | 7.0 | 11.3 | 0.00 | 0.00 | 0.00 | 48 | 1007.4 |
| 20260503210048 | 45 | 271 | 7.0 | 13.0 | 0.00 | 0.00 | 0.00 | 50 | 1007.4 |
| 20260503204552 | 46 | 323 | 3.5 | 14.8 | 0.00 | 0.00 | 0.00 | 50 | 1007.3 |
| 20260503203046 | 46 | 296 | 4.3 | 12.2 | 0.00 | 0.00 | 0.00 | 50 | 1007.4 |
| 20260503201546 | 45 | 302 | 7.0 | 18.2 | 0.00 | 0.00 | 0.00 | 48 | 1007.4 |
| 20260503200045 | 47 | 235 | 5.2 | 13.0 | 0.00 | 0.00 | 0.00 | 48 | 1007.3 |
| 20260503194546 | 45 | 257 | 5.2 | 15.6 | 0.00 | 0.00 | 0.00 | 51 | 1007.6 |
| 20260503193042 | 46 | 291 | 5.2 | 15.6 | 0.00 | 0.00 | 0.00 | 49 | 1007.6 |
| 20260503191540 | 46 | 266 | 3.5 | 12.2 | 0.00 | 0.00 | 0.00 | 53 | 1007.6 |
| 20260503190040 | 45 | 329 | 6.1 | 15.6 | 0.00 | 0.00 | 0.00 | 49 | 1007.9 |
| 20260503184557 | 45 | 281 | 7.0 | 17.4 | 0.00 | 0.00 | 0.00 | 49 | 1007.8 |
| 20260503183042 | 45 | 311 | 6.1 | 13.9 | 0.00 | 0.00 | 0.00 | 49 | 1007.8 |
| 20260503181540 | 45 | 283 | 6.1 | 13.9 | 0.00 | 0.00 | 0.00 | 49 | 1007.7 |
| 20260503180040 | 45 | 301 | 7.8 | 18.2 | 0.00 | 0.00 | 0.00 | 49 | 1007.7 |
| 20260503174537 | 45 | 240 | 5.2 | 12.2 | 0.00 | 0.00 | 0.00 | 55 | 1007.7 |
| 20260503173038 | 44 | 226 | 4.3 | 13.0 | 0.00 | 0.00 | 0.00 | 56 | 1007.8 |
| 20260503171557 | 44 | 267 | 4.3 | 16.5 | 0.00 | 0.00 | 0.00 | 58 | 1007.5 |